www.pogodaiklimat.ru
ПОГОДА в Пеканбару
Время
(UTC), дата
06 9.10
09 9.10
12 9.10
15 9.10
18 9.10
21 9.10
00 10.10
03 10.10
06 10.10
09 10.10
12 10.10
15 10.10
18 10.10
21 10.10
00 11.10
03 11.10
06 11.10
09 11.10
12 11.10
15 11.10
18 11.10
21 11.10
00 12.10
03 12.10
06 12.10
09 12.10
12 12.10
15 12.10
18 12.10
21 12.10
00 13.10
03 13.10
06 13.10
09 13.10
12 13.10
15 13.10
18 13.10
21 13.10
00 14.10
03 14.10
06 14.10
09 14.10
12 14.10
15 14.10
18 14.10
21 14.10
00 15.10
03 15.10
06 15.10
09 15.10
12 15.10
15 15.10
18 15.10
21 15.10
00 16.10
03 16.10
Ветер
(напр.,м/с)
Видим. Явления Облачность Т
(С)
Тd
(С)
f
(%)
Тe
(С)
Тes
(С)
Комфортность P
(гПа)
Po
(гПа)
Тmin
(С)
Tmax
(С)
R
(мм)
R24
(мм)
S
(см)
Ю 3 8000 м 9/6 400 м
[Sc Ac trans Ci sp]
+32.4 +20.8 50 +39 +44 очень
душно
1008.2 1004.5
ЮВ 4 10 км 9/6 450 м
[Cb cap Ac trans Ci sp]
+33.1 +20.6 48 +40 +41 очень
душно
1006.1 1002.4
штиль 0 8000 м {гроза, дождь} 10/4 500 м
[Sc Ac trans Cs]
+25.4 +24.2 93 +35 +35 очень
душно
1008.1 1004.4 +34.0 3
СВ 2 7000 м 9/3 500 м
[Sc Ac trans Cs]
+25.3 +23.6 90 +34 +34 очень
душно
1010.7 1007.0
штиль 0 5000 м мгла 9/3 500 м
[Sc Ac trans Ci sp]
+24.4 +23.7 96 +33 +33 очень
душно
1009.6 1005.9
штиль 0 5000 м мгла 8/3 400 м
[Sc Ac trans Ci sp]
+23.5 +23.2 98 +31 +31 очень
душно
1008.4 1004.7
штиль 0 2500 м дымка 8/3 360 м
[Sc Ac trans Ci sp]
+25.0 +24.5 97 +35 +35 очень
душно
1010.7 1007.0 +23.0 3
СВ 3 7000 м 9/5 450 м
[Sc Ac trans Ci sp]
+29.5 +24.1 73 +41 +45 опасность
перегрева
1011.8 1008.0
В 2 8000 м 9/5 450 м
[Sc Ac trans Ci sp]
+32.4 +22.9 57 +42 +48 опасность
перегрева
1009.0 1005.3
ЮВ 5 6000 м 10/5 450 м
[Sc Ac As Ci sp]
+31.9 +22.9 59 +42 +43 опасность
перегрева
1006.7 1003.0
ЮВ 3 5000 м мгла 9/4 400 м
[Sc Ac As Cs]
+29.2 +23.0 69 +39 +39 очень
душно
1008.6 1004.9 +32.6
СВ 3 6000 м 6/1 450 м
[Sc Ac trans Ci sp]
+27.0 +24.6 87 +38 +38 очень
душно
1010.4 1006.7
штиль 0 7000 м 9/4 450 м
[Sc Ac trans Ci sp]
+26.0 +24.9 94 +37 +37 очень
душно
1009.7 1006.0
штиль 0 3500 м 10/4 300 м
[Sc Ac trans Ci sp]
+25.0 +24.7 98 +35 +35 очень
душно
1009.0 1005.3
штиль 0 2000 м дым 8/4 270 м
[Sc Ac trans Ci sp]
+25.4 +24.4 94 +35 +36 очень
душно
1010.6 1006.9 +23.7
ЮВ 4 6000 м 9/5 360 м
[Cu med, cong Ac trans Ci sp]
+29.3 +24.8 77 +42 +45 опасность
перегрева
1011.1 1007.4
Ю 8 8000 м 9/5 450 м
[Cu med, cong Ac trans Ci sp]
+32.4 +23.4 59 +43 +44 опасность
перегрева
1008.1 1004.4
Ю 3 8000 м 8/4 450 м
[Sc Ac trans Ci sp]
+33.7 +21.9 50 +42 +44 опасность
перегрева
1005.8 1002.1
Ю 3 7000 м зарница 8/3 500 м
[Cb cap Ac trans Ci sp]
+30.0 +24.6 73 +43 +43 опасность
перегрева
1007.4 1003.7 +34.5
штиль 0 7000 м в посл. час дождь 9/6 400 м
[Cb cap Ac trans Ci sp]
+25.5 +23.7 90 +35 +35 очень
душно
1009.9 1006.1 0.5
С 3 7000 м зарница {дождь} 10/8 400 м
[Cb cap Ac As Cs]
+24.4 +23.6 95 +33 +33 очень
душно
1009.2 1005.5 0.5
штиль 0 6000 м в посл. час дождь 10/6 400 м
[Cb cap Ac trans Ci sp]
+23.8 +23.7 99 +32 +32 очень
душно
1008.8 1005.1 0.5
штиль 0 3000 м мгла 9/6 400 м
[Sc Ac As Cs]
+24.4 +23.8 96 +33 +33 очень
душно
1009.6 1005.9 +23.4 0.5
ЮВ 4 10 км 8/5 400 м
[Cu med, cong Ac trans Ci sp]
+29.9 +22.9 66 +40 +43 очень
душно
1010.3 1006.6
Ю 3 10 км 9/5 420 м
[Cu med, cong Ac trans Ci sp]
+32.4 +22.8 57 +42 +47 опасность
перегрева
1007.9 1004.2
Ю 3 8000 м 9/3 450 м
[Cu med, cong Ac trans Ci sp]
+33.1 +21.9 52 +42 +44 опасность
перегрева
1005.4 1001.7
штиль 0 7000 м 8/3 450 м
[Sc As op Ci sp]
+29.8 +24.6 74 +42 +42 опасность
перегрева
1007.4 1003.7 +33.8
СВ 2 7000 м 8/3 450 м
[Sc Ac trans Ci sp]
+27.2 +23.2 79 +37 +37 очень
душно
1009.9 1006.2
штиль 0 7000 м 9/3 450 м
[Sc Ac trans Ci sp]
+25.9 +24.0 89 +36 +36 очень
душно
1008.9 1005.2
штиль 0 7000 м 9/4 400 м
[Sc Ac trans Ci sp]
+25.0 +23.3 90 +33 +33 очень
душно
1008.2 1004.5
штиль 0 5000 м мгла 8/3 450 м
[Sc Ac trans Ci sp]
+25.7 +23.4 87 +35 +35 очень
душно
1009.2 1005.5 +23.6
Ю 3 8000 м 9/6 400 м
[Cu med, cong Ac trans Ci sp]
+29.8 +24.2 72 +42 +45 опасность
перегрева
1010.6 1006.8
Ю 4 8000 м 9/5 450 м
[Cu med, cong Ac trans Ci sp]
+31.9 +23.7 62 +43 +47 опасность
перегрева
1007.4 1003.6
В 3 3000 м гроза, ливневой дождь 10/6 400 м
[Cb cap As op Cs]
+27.2 +25.0 88 +39 +40 очень
душно
1005.7 1002.0 2
штиль 0 8000 м слаб. ливневой дождь, в посл. час гроза 10/6 360 м
[Cb cap As op Cs]
+24.2 +24.1 99 +33 +33 очень
душно
1007.9 1004.2 +35.2 4
штиль 0 5000 м мгла {дождь} 10/6 400 м
[Cb cap Ac As Cs]
+23.6 +23.4 99 +32 +32 очень
душно
1010.5 1006.8 0.5
штиль 0 7000 м {дождь} 10/5 400 м
[Sc Ac As Cs]
+24.0 +23.4 96 +32 +32 очень
душно
1009.6 1005.9 0.5
штиль 0 7000 м 10/6 400 м
[Sc Ac As Cs]
+24.0 +23.4 96 +32 +32 очень
душно
1008.6 1004.9
Ю 3 5000 м мгла 9/4 400 м
[Sc Ac trans Ci fib]
+24.0 +23.4 96 +32 +32 очень
душно
1009.4 1005.7 +22.7 6
Ю 3 8000 м 8/4 400 м
[Sc Ac trans Ci sp]
+28.6 +23.7 75 +39 +45 очень
душно
1011.2 1007.5
штиль 0 10 км 9/5 450 м
[Cu med, cong Ac trans Ci sp]
+31.0 +23.6 65 +42 +50 опасность
перегрева
1008.9 1005.2
Ю 4 8000 м 9/4 450 м
[Cu med, cong Ac As Ci sp]
+30.2 +24.2 70 +42 +44 опасность
перегрева
1006.4 1002.7
штиль 0 6000 м 8/3 480 м
[Sc Ac As Ci sp]
+27.4 +25.0 87 +39 +39 очень
душно
1008.2 1004.5 +32.5
штиль 0 7000 м {гроза, дождь} 10/5 360 м
[Sc As op Ci sp]
+25.4 +24.2 93 +35 +35 очень
душно
1010.1 1006.4 11
штиль 0 7000 м {гроза, дождь} 9/4 400 м
[Sc Ac trans Ci sp]
+25.0 +24.2 95 +34 +34 очень
душно
1009.4 1005.7 11
штиль 0 5000 м мгла 9/4 450 м
[Sc Ac trans Ci sp]
+24.1 +24.0 99 +33 +33 очень
душно
1008.9 1005.2
штиль 0 2000 м дымка 9/4 360 м
[Sc Ac As Ci sp]
+24.2 +24.1 99 +33 +34 очень
душно
1009.8 1006.1 +23.2 11
ЮВ 3 7000 м 9/5 450 м
[Sc As trans Ci sp]
+27.6 +24.9 85 +39 +43 очень
душно
1011.1 1007.4
ЮВ 4 8000 м 9/3 450 м
[Sc As trans Ci sp]
+31.1 +23.7 65 +42 +48 опасность
перегрева
1008.5 1004.8
Ю 4 8000 м 8/3 450 м
[Cu med, cong Ac As Ci sp]
+32.6 +22.4 55 +42 +44 опасность
перегрева
1005.8 1002.1
Ю 3 7000 м в посл. час гроза {дождь} 10/5 400 м
[Cb cap Ac As Cs]
+24.8 +23.3 91 +33 +33 очень
душно
1008.3 1004.5 +33.5 9
штиль 0 6000 м 10/4 400 м
[Sc Ac As Cs]
+24.9 +24.2 96 +34 +34 очень
душно
1010.1 1006.4
штиль 0 5000 м мгла 10/4 400 м
[Sc Ac As Cs]
+24.2 +23.7 97 +33 +33 очень
душно
1009.3 1005.6
штиль 0 5000 м 10/5 400 м
[Sc Ac As Cs]
+23.4 +23.2 99 +33 +33 очень
душно
1008.1 1004.4
штиль 0 5000 м мгла 10/6 400 м
[Sc Ac As Cs]
+24.5 +23.6 95 +33 +33 очень
душно
1009.9 1006.1 +23.2 9
штиль 0 6000 м 9/3 450 м
[Sc Ac As Ci sp]
+28.7 +24.8 79 +41 +49 опасность
перегрева
1010.4 1006.7
Местоположение метеостанции Пеканбару (Индонезия): широта 0.47 долгота 101.45 высота над уровнем моря 31 м.
В архиве по умолчанию представлена погода в Пеканбару за последнюю неделю. Архивные данные за месяц целиком и за предыдущие месяцы, начиная с января 2011 года, Вы можете получить, выбрав интересующий диапазон дат из раскрывающегося списка и нажав кнопку "Найти!".
*Определитесь, кто Вы:
Внимание! Время в таблицах - всемирное. Для получения местного времени необходимо прибавить поправку, которая равна 7 ч.
Смотрите также архив погоды в соседних городах и на ближайших метеорологических станциях:
Партнеры нашего сайта:      
Пояснения к столбцам:
  • Ветер - указаны скорость ветра в м/с - средняя за 10 мин, порывы в срок и между сроками (в фигурных скобках) и направление, откуда дует ветер: С - северный,
  • СВ - северо-восточный, В - восточный, ЮВ - юго-восточный, Ю - южный, ЮЗ - юго-западный, З - западный, СЗ - северо-западный.
  • Видимость - горизонтальная дальность видимости в метрах или километрах. При видимости от 1 до 10 км при отсутствии осадков обычно наблюдается дымка, при ухудшении видимости до 1 км и менее - туман. В сухую погоду видимость может ухудшаться дымом, пылью или мглою.
  • Явления - указаны атмосферные явления, наблюдавшиеся в срок или в последний час перед сроком; фигурными скобками обозначены явления, наблюдавшиеся между сроками (за 1-3 часа до срока); квадратными скобками обозначены град или гололедные отложения с указанием их диаметра в мм.
  • Облачность - указаны через наклонную черту общая и нижняя облачность в баллах и высота нижней границы облаков в метрах; квадратными скобками обозначены формы облаков: Ci - перистые, Cs - перисто-слоистые, Cc - перисто-кучевые, Ac - высококучевые, As - высокослоистые, Sc - слоисто-кучевые, Ns - слоисто-дождевые, Cu - кучевые, Cb - кучево-дождевые. Подробнее классификацию облаков см. в Атласе облаков (PDF).
  • T - Температура воздуха - температура, измеренная на высоте 2 м над землей.
  • Td - Температура точки росы - температура, при понижении до которой содержащийся в воздухе водяной пар достигнет насыщения.
  • f - Относительная влажность воздуха - влажноcть воздуха, измеренная на высоте 2 м над землей.
  • Te - Эффективная температура - температура, которую ощущает одетый по сезону человек в тени. Характеристика душности погоды. При расчете учитывается влияние влажности воздуха и скорости ветра на теплоощущения человека.
  • Tes - Эффективная температура на солнце - температура, которую ощущает человек, с поправкой на солнечный нагрев. Характеристика знойности погоды. Зависит от высоты солнца над горизонтом, облачности и скорости ветра. Ночью, в пасмурную погоду, а также при ветре 12 м/с и более поправка равна нулю.
  • P - Атмосферное давление - приведенное к уровню моря атмосферное давление.
  • Po - Атмосферное давление - измеренное на уровне метеостанции атмосферное давление.
  • Tmin - Минимальная температура - минимум температуры воздуха на высоте 2 м над землей.
  • Tmax - Максимальная температура - максимум температуры воздуха на высоте 2 м над землей.
  • R - Количество осадков - Количество выпавших осадков за период времени, мм. При наведении курсора мыши на число - период времени, за который выпало указанное количество осадков.
  • R24 - Количество осадков - Количество выпавших осадков за 24 часа, мм.
  • S - Снежный покров - Высота снежного покрова, см. При наведении курсора мыши на число - состояние снежного покрова и степень покрытия местности в баллах.